Weather Roundup
Issued by NWS Corpus Christi, TX

Current Version | Previous Version | Text Only | Print | Product List | Glossary On
Versions: 1 2 3 4 5 6 7 8 9 10 11 12 13 14 15 16 17 18 19 20 21 22 23 24 25 26 27 28 29 30 31 32 33 34 35 36 37 38 39 40 41 42 43 44 45 46 47 48 49 50
000
ASUS44 KCRP 311310
HRRCRP

SOUTH TEXAS REGIONAL WEATHER ROUNDUP
NATIONAL WEATHER SERVICE CORPUS CHRISTI TX
800 AM CDT MON AUG 31 2015


TXZ229>244-311400-
...CORPUS CHRISTI AREA OBSERVATIONS...

CITY           SKY/WX    TMP DP  RH WIND       PRES   REMARKS
CORPUS CHRISTI PTSUNNY   77  71  82 CALM      29.96R
NAS CORPUS CHR PTSUNNY   77  75  93 CALM      29.96R
ROCKPORT       MOSUNNY   81  74  79 CALM      29.97R
KINGSVILLE NAS PTSUNNY   73  73 100 SE6       29.96R
ALICE          MOSUNNY   73  72  96 E3        29.96R
FALFURRIAS     CLEAR     74  72  93 SE3       29.96R
$$

...VICTORIA AREA OBSERVATIONS...

CITY           SKY/WX    TMP DP  RH WIND       PRES   REMARKS
VICTORIA       MOSUNNY   74  73  97 MISG      30.00R
BEEVILLE       FAIR      70  70 100 NE3       29.98R FOG
PLEASANTON     CLEAR     71  69  94 CALM      30.00R
SAN ANTONIO    MOCLDY    77  72  84 SE3       30.02R
$$

...LAREDO AREA OBSERVATIONS...

CITY           SKY/WX    TMP DP  RH WIND       PRES   REMARKS
LAREDO         CLOUDY    77  73  87 SE9       29.97R
COTULLA        CLEAR     75  71  87 E6        29.98R
DEL RIO        CLEAR     75  68  78 E8        29.97R
MCALLEN        CLEAR     80  75  84 E7        29.95R
HEBBRONVILLE   NOT AVBL
$$

...OTHER TEXAS OBSERVATIONS...

CITY           SKY/WX    TMP DP  RH WIND       PRES   REMARKS
BROWNSVILLE    TSTM      75  72  90 S14       29.97R
HOUSTON        PTSUNNY   73  70  90 CALM      30.02R
COL. STATION   MOSUNNY   74  71  91 E3        30.02R
AUSTIN         MOSUNNY   71  69  93 CALM      30.01R
WACO           SUNNY     73  68  84 SE8       30.02R
FORT WORTH     SUNNY     76  66  71 S6        30.01R
WICHITA FALLS  SUNNY     69  63  81 S6        29.99R
LUBBOCK        CLEAR     64  57  78 S7        30.08R
EL PASO        PTCLDY    69  51  52 E5        30.06R
$$

...MARINE OBSERVATIONS...

STATION/POSITION TIME  SKY/WX   TEMP    WIND        PRES    VSBY  WAVE   SWELL
                                AIR SEA DIR/SP/G                  HT/PER HT/PER
                 (UTC)          (F)     (DEG/KT/KT) (MB)    (MI)  (FT/S) (FT/S)
PORT ARANSAS     1300            83 85  130/ 10/ 10 1015.5R
BUOY 90 E PORT A 1250            84 85  140/  8/ 10 1015.3R         1/ 4
BUOY 45 SE BAFFI 1250            84 84  170/ 12/ 14 1014.4R         2/ 4
BUOY 200 E PT IS 1250            85 85  130/ 10/ 12 1015.8R         2/ 7   2/ 7
BUOY 15 E GALVES 1250            84 85  150/  6/  6 1016.0R         1/ 4
$$



USA.gov is the U.S. government's official web portal to all federal, state and local government web resources and services.